RH
59 61 60 55 52 52 52 42 50 47 40 33 28 25 23 25 26 24 22 22 16 13 13 13 12 14 15 15 14 17 19 22 24 22 18 17 15 13 11 11 11 11 12 14 14
55 59 60 59 51 53 52 52 47 45 38 37 31 30 25 26 26 24 23 20 17 14 15 18 17 13 17 15 13 14 17 19 16 14 13 11 10 10 9 9 10 13 14 14 12
57 59 55 58 54 55 58 54 51 45 38 36 36 33 29 27 26 25 24 21 20 16 17 18 16 16 16 15 15 14 14 16 14 11 9 10 10 10 9 8 13 13 13 12 13
58 60 58 52 47 53 56 57 54 43 42 40 45 37 34 29 30 29 28 23 22 19 17 18 18 19 16 15 14 12 12 12 11 12 11 9 11 10 9 10 11 10 10 11 12
56 63 61 60 51 54 56 61 63 54 45 37 43 43 41 32 30 32 28 25 23 22 19 20 21 23 19 16 13 13 12 12 11 10 10 10 10 11 11 11 10 10 10 11 11
49 64 63 63 63 56 53 57 53 57 51 45 40 43 43 36 34 30 31 28 25 25 22 21 24 22 20 18 16 15 15 12 11 11 11 11 11 12 12 12 12 11 11 11 12
45 58 62 66 61 56 52 54 57 53 46 43 38 47 42 37 36 33 31 31 29 26 26 22 23 24 23 20 18 14 13 13 12 14 13 12 14 14 14 14 12 13 13 13 13
47 51 61 66 61 56 56 55 58 55 52 40 48 45 49 47 39 37 33 32 31 28 26 24 24 24 23 21 17 14 14 17 16 17 15 15 18 17 16 14 13 13 13 14 14
49 48 57 65 62 54 55 56 58 60 52 47 47 43 42 41 40 39 37 34 30 28 28 28 25 24 23 21 18 17 18 20 22 19 18 17 19 22 17 15 14 14 14 14 15
50 48 55 63 61 60 61 61 56 65 57 50 45 45 39 37 42 40 38 37 35 34 33 33 27 26 23 21 21 21 21 18 19 21 19 18 17 19 16 15 15 15 16 16 16
52 48 50 59 60 62 65 64 55 59 66 57 52 45 46 39 38 40 39 38 40 38 33 33 31 28 24 22 18 18 20 23 17 22 21 20 18 19 17 17 17 18 17 18 19
53 49 47 48 52 61 69 64 63 58 61 60 57 53 51 46 41 42 41 42 41 35 39 43 38 32 26 21 19 19 18 18 18 22 22 19 20 20 17 17 16 18 20 20 20
57 50 48 46 62 68 67 57 64 63 56 59 62 55 49 52 50 46 43 44 47 49 47 49 42 33 28 22 18 17 18 19 21 22 20 22 23 18 17 17 18 20 21 21 21
61 49 48 49 61 68 54 48 57 60 59 57 63 60 51 52 51 49 53 48 47 44 41 42 40 37 31 24 21 22 21 19 21 23 28 26 29 21 22 21 21 20 22 22 24
62 52 51 51 58 58 59 50 51 61 64 49 55 57 52 56 51 49 46 44 45 43 38 32 27 25 24 19 19 20 20 21 24 27 27 24 27 20 21 23 22 21 23 25 26
65 54 51 52 58 62 63 53 53 63 59 51 52 59 56 50 45 46 45 45 45 44 38 34 26 23 20 21 22 24 24 26 27 29 33 24 25 26 24 22 23 22 24 27 28
63 57 55 51 54 62 63 52 59 59 48 51 52 50 52 47 52 52 49 46 42 46 45 39 33 28 24 25 27 28 28 34 41 39 35 24 27 21 21 21 21 23 25 27 28
65 64 63 55 54 74 65 61 63 49 47 44 47 54 49 46 44 44 48 49 47 42 43 43 36 29 29 30 29 28 26 30 36 34 31 26 27 21 20 20 20 21 24 27 29
70 76 70 58 57 61 68 74 60 52 44 46 45 53 45 51 41 40 40 38 39 42 50 40 39 39 35 32 29 28 29 26 30 27 27 21 19 21 21 20 22 24 24 26 28
74 81 77 62 59 62 64 66 58 52 48 43 47 47 46 47 50 37 33 25 30 30 39 37 41 38 37 31 28 28 29 32 30 30 32 26 23 25 23 22 22 24 25 26 28
79 81 79 71 67 69 59 60 62 56 50 44 45 48 46 46 50 47 42 34 34 37 39 41 43 42 34 31 30 31 31 28 29 29 32 30 28 24 25 24 23 24 26 26 28
82 82 85 74 70 67 65 64 66 59 53 43 45 44 48 42 49 46 48 46 41 40 42 35 34 37 34 32 32 31 29 29 31 27 29 32 31 22 24 25 25 24 25 28 31
81 90 85 84 70 67 66 70 68 62 57 46 43 50 45 43 45 46 41 44 41 39 35 34 33 38 41 38 34 31 28 28 28 29 30 35 30 27 27 28 29 29 30 33 35
88 95 90 80 70 65 65 70 67 64 63 52 43 45 48 43 38 43 47 43 42 41 40 39 39 39 41 38 35 34 31 29 30 32 28 28 25 27 29 32 30 31 32 34 37
88 81 77 78 75 66 66 67 67 65 63 58 46 43 50 51 47 43 44 46 45 45 43 43 42 40 39 37 35 35 34 33 32 29 33 26 27 24 29 32 31 31 36 37 38
87 77 76 79 79 72 65 66 70 67 62 61 50 43 43 52 44 44 44 44 46 47 44 42 42 39 37 35 35 35 34 32 32 31 30 29 28 27 28 28 32 35 38 39 40
91 82 77 75 77 76 66 67 66 66 61 61 61 48 45 44 47 44 41 40 40 41 41 42 42 41 42 36 39 43 36 34 31 29 28 30 27 30 32 33 36 40 40 43 46